Regional Weather Roundup
Issued by NWS Upton, NY

Current Version | Previous Version | Graphics & Text | Print | Product List | Glossary Off
Versions: 1 2 3 4 5 6 7 8 9 10 11 12 13 14 15 16 17 18 19 20 21 22 23 24 25 26 27 28 29 30 31 32 33 34 35 36 37 38 39 40 41 42 43 44 45 46 47 48 49 50
000 ASUS41 KOKX 270805 RWROKX REGIONAL WEATHER ROUNDUP NATIONAL WEATHER SERVICE NEW YORK NY 300 AM EST THU NOV 27 2014 NOTE: "FAIR" INDICATES FEW OR NO CLOUDS BELOW 12,000 FEET WITH NO SIGNIFICANT WEATHER AND/OR OBSTRUCTIONS TO VISIBILITY. NYZ071-072-176-178-NJZ106-104-270900- NEW YORK CITY METRO AREA CITY SKY/WX TMP DP RH WIND PRES REMARKS CENTRAL PARK CLOUDY 36 29 75 NW5 29.92R WCI 32 LAGUARDIA APRT CLOUDY 37 30 75 N14 29.90R WCI 28 KENNEDY INTL CLOUDY 37 30 75 NW14 29.91R WCI 28 NEWARK/LIBERTY CLOUDY 36 32 85 CALM 29.92S BRNX BOT. GARD N/A N/A N/A N/A NW6 29.92R TETERBORO CLOUDY 36 30 79 NW5 29.90R WCI 32 $$ NYZ177-179-078>081-270900- LONG ISLAND NEW YORK CITY SKY/WX TMP DP RH WIND PRES REMARKS FARMINGDALE CLOUDY 36 32 85 NW7 29.89R WCI 30 ISLIP CLOUDY 36 33 89 NW12 29.84R WCI 28 SHIRLEY CLOUDY 36 34 92 NW8 29.86S WCI 30 WESTHAMPTON LGT RAIN 37 34 89 NW10 29.86R WCI 30 MONTAUK POINT N/A 39 34 82 NW13G23 29.82R WCI 31 $$ NYZ052-065-067-270900- HUDSON VALLEY CITY SKY/WX TMP DP RH WIND PRES REMARKS WHITE PLAINS MOCLDY 33 28 81 NW15G25 29.87R WCI 23 NEWBURGH NOT AVBL MONTGOMERY CLOUDY 32 31 96 CALM 29.89R POUGHKEEPSIE CLOUDY 33 28 81 N9 29.90R WCI 25 ALBANY LGT SNOW 30 27 88 N12 29.92S FOG WCI 20 $$ NJZ001-105-106-008-010-013-015-019>022-104-270900- NEW JERSEY CITY SKY/WX TMP DP RH WIND PRES REMARKS NEWARK/LIBERTY CLOUDY 36 32 85 CALM 29.92S TETERBORO CLOUDY 36 30 79 NW5 29.90R WCI 32 CALDWELL CLOUDY 34 30 85 CALM 29.91S MORRISTOWN N/A 37 32 81 CALM 29.92R SOMERVILLE CLOUDY 36 31 82 CALM 29.91R SUSSEX CLOUDY 33 30 88 CALM 29.90R ANDOVER N/A 32 31 96 CALM 29.91R TRENTON CLOUDY 35 30 82 NW7 29.92S WCI 29 MILLVILLE MOCLDY 35 33 92 W7 29.98R WCI 29 ATLANTIC CITY PTCLDY 35 33 92 W9 29.95R WCI 28 WRIGHTSTOWN CLOUDY 35 32 92 W6 29.92R WCI 29 TOMS RIVER CLEAR 34 32 93 CALM 29.93R BELMAR MOCLDY 34 28 80 W9 29.91R WCI 26 $$ PAZ047>061-062-071-270900- EASTERN PENNSYLVANIA CITY SKY/WX TMP DP RH WIND PRES REMARKS PHILADELPHIA CLOUDY 37 31 78 W8 29.97R WCI 31 ALLENTOWN CLOUDY 35 28 75 W5 29.94R WCI 31 SCRANTON FLURRIES 31 26 82 W13 29.93S WCI 21 $$ CTZ002-004>006-009-010-012-RIZ004-006-007-MAZ004-011-015-270900- SOUTHERN NEW ENGLAND IN CT CITY SKY/WX TMP DP RH WIND PRES REMARKS BRADLEY INTL FLURRIES 34 31 88 N5 29.82R WCI 30 HARTFORD CLOUDY 34 31 88 VRB5 29.84R WCI 30 DANBURY CLOUDY 32 26 78 NW8 29.87R WCI 25 WTRBRY/OXFORD MOCLDY 30 25 80 NW8 29.85R WCI 23 BRIDGEPORT CLOUDY 35 29 78 NW7 29.87R WCI 29 MERIDEN CLOUDY 35 30 82 NW5 29.84R WCI 31 NEW HAVEN CLOUDY 39 31 72 NW8 29.85R WCI 33 CHESTER CLOUDY 34 32 93 N10G18 29.81R WCI 26 GROTON CLOUDY 34 34 100 NW12G23 29.80R WCI 25 WILLIMANTIC MOCLDY 34 30 85 NW8 29.80R WCI 27 IN RI CITY SKY/WX TMP DP RH WIND PRES REMARKS PROVIDENCE MIX PCPN 34 31 88 N15G22 29.77R WCI 24 BLOCK ISLAND CLOUDY 36 30 80 N17G28 29.77R WCI 25 WESTERLY CLOUDY 35 32 88 NW9 29.78R WCI 28 IN MA CITY SKY/WX TMP DP RH WIND PRES REMARKS BOSTON LGT SNOW 33 31 92 NW18G24 29.74R FOG WCI 22 WORCESTER LGT SNOW 30 28 92 NW13 29.74R FOG WCI 20 WESTFIELD LGT SNOW 33 31 92 CALM 29.82R FOG PROVINCETOWN CLOUDY 43 36 75 N26G39 29.66R NANTUCKET CLOUDY 41 36 82 N24G43 29.63R $$ ANZ330-335-338-340-345-350-353-355-270900- COASTAL MARINE OBSERVATIONS STATION/POSITION TIME SKY/WX TEMP WIND PRES VSBY WAVE AIR SEA DIR/SP/G HT/PER (UTC) (F) (DEG/KT/KT) (MB) (MI) (FT/S) NY HARB ENTRANCE 0800 41 55 330/ 17/ 23 1012.0 7/ 9 4S FIRE IS 0800 52 N/A 7/11 20S FIRE ISLAND 0800 41 54 350/ 19/ 23 1010.6 10/11 23SW MTP 0700 N/A 10/11 HUDSON CANYON 0800 43 58 320/ 19/ 23 1010.2 12/11 EXECUTION ROCKS 0800 37 48 340/ 12/ 17 N/A WESTERN LI SOUND 0800 37 330/ 12/ 16 N/A 1/ 2 CENTRAL LI SOUND 0700 38 50 310/ 16/ 21 N/A 2/ 4 EASTERN LI SOUND 0700 38 52 330/ 14/ 17 N/A ROBBINS REEF 0800 37 320/ 9/ 12 1011.7 $$ >>>>>>>>>>>>>>>>>>>>>>>>>>>> KEY <<<<<<<<<<<<<<<<<<<<<<<<<<< > < > SKY/WX - SKY CONDITION/PRESENT WEATHER < > TMP - TEMPERATURE IN FAHRENHEIT < > DP - DEWPOINT IN FAHRENHEIT < > RH - RELATIVE HUMIDITY IN PERCENT < > WIND - DIRECTION AND SPEED IN MPH < > PRES - MEAN SEA LEVEL PRESSURE IN INCHES OF HG < > WCI - WIND CHILL INDEX < > VSB - VISIBILITY IN MILES < > HX - HEAT INDEX < > TC - TEMPERATURE IN CELSIUS < > VRB - VARIABLE WIND DIRECTION < > < >>>>>>>>>>>>>>>>>>>>>>>>>>>> KEY <<<<<<<<<<<<<<<<<<<<<<<<<<<

USA.gov is the U.S. government's official web portal to all federal, state and local government web resources and services.